Burlington, VT

10:40 AM EST on November 24, 2017 (GMT -0500)
Burlington International

Weather History for KBTV - April, 2013

Change the Weather History Date:

Thursday, April 25, 2013

  Actual Average Record
Temperature  
Mean Temperature 47 °F 49 °F  
Max Temperature 57 °F 60 °F 86 °F (2009)
Min Temperature 37 °F 38 °F 20 °F (1919)
Degree Days  
Heating Degree Days 18 16  
Month to date heating degree days 547 536  
Since 1 July heating degree days 6413 7000  
Cooling Degree Days 0 0  
Month to date cooling degree days 0 0  
Year to date cooling degree days 0 0  
Moisture  
Dew Point 29 °F    
Average Humidity 53    
Maximum Humidity 80    
Minimum Humidity 26    
Precipitation  
Precipitation 0.00 in 0.09 in 1.09 in (1945)
Month to date precipitation 2.05 2.31  
Year to date precipitation 6.53 8.35  
Snow  
Snow 0.00 in 0.10 in 0.50 in (1930)
Month to date snowfall 1.0 4.3  
Since 1 July snowfall 82.9 80.9  
Snow Depth 0.00 in    
Sea Level Pressure  
Sea Level Pressure 30.11 in    
Wind  
Wind Speed 7 mph (West)    
Max Wind Speed 18 mph    
Max Gust Speed 28 mph    
Visibility 10 miles    
Events      
T = Trace of Precipitation, MM = Missing Value Source: NWS Daily Summary

Daily Weather History Graph

Daily Weather History Graph

Search for Another Location

Airport or City:

Trip Planner

Search our weather history database for the weather conditions in past years. The results will help you decide how hot, cold, wet, or windy it might be!

Date:

Astronomy

Apr. 25, 2013 Rise Set
Actual Time 5:51 AM EDT 7:49 PM EDT
Civil Twilight 5:20 AM EDT 8:21 PM EDT
Nautical Twilight 4:42 AM EDT 8:59 PM EDT
Astronomical Twilight 4:00 AM EDT 9:42 PM EDT
Moon 8:01 PM EDT (4/25) 5:33 AM EDT (4/25)
Length of Visible Light 15h 00m
Length of Day
13h 58m
Full, 100% of the Moon is Illuminated
Apr 25
Full
Apr 25
Full
May 2
Last Quarter
May 9
New
May 18
First Quarter

Hourly Weather History & Observations

Time (EDT) Temp. Windchill Dew Point Humidity Pressure Visibility Wind Dir Wind Speed Gust Speed Precip Events Conditions
12:54 AM 57.0 °F - 52.0 °F 83% 29.67 in 10.0 mi South 5.8 mph - 0.01 in   Overcast
1:54 AM 52.0 °F - 39.9 °F 63% 29.75 in 10.0 mi West 15.0 mph 24.2 mph N/A   Mostly Cloudy
2:54 AM 48.9 °F - 35.1 °F 59% 29.83 in 10.0 mi West 13.8 mph 23.0 mph N/A   Partly Cloudy
3:54 AM 46.0 °F 40.6 °F 32.0 °F 58% 29.91 in 10.0 mi West 11.5 mph 19.6 mph N/A   Mostly Cloudy
4:54 AM 44.1 °F 39.5 °F 30.9 °F 60% 29.96 in 10.0 mi West 8.1 mph - N/A   Overcast
5:54 AM 43.0 °F 38.2 °F 30.9 °F 62% 30.00 in 10.0 mi WNW 8.1 mph - N/A   Mostly Cloudy
6:54 AM 43.0 °F 40.3 °F 30.0 °F 60% 30.05 in 10.0 mi Variable 4.6 mph 16.1 mph N/A   Mostly Cloudy
7:54 AM 43.0 °F 36.4 °F 30.0 °F 60% 30.10 in 10.0 mi West 12.7 mph - N/A   Scattered Clouds
8:54 AM 45.0 °F 40.6 °F 30.0 °F 56% 30.12 in 10.0 mi West 8.1 mph - N/A   Mostly Cloudy
9:54 AM 44.1 °F 37.7 °F 28.9 °F 55% 30.14 in 10.0 mi West 12.7 mph 19.6 mph N/A   Mostly Cloudy
10:54 AM 46.0 °F 40.6 °F 28.0 °F 50% 30.17 in 10.0 mi West 11.5 mph 19.6 mph N/A   Scattered Clouds
11:54 AM 48.0 °F - 28.0 °F 46% 30.18 in 10.0 mi West 11.5 mph - N/A   Mostly Cloudy
12:54 PM 48.9 °F - 27.0 °F 43% 30.19 in 10.0 mi WSW 8.1 mph - N/A   Mostly Cloudy
1:54 PM 51.1 °F - 27.0 °F 39% 30.19 in 10.0 mi Variable 4.6 mph - N/A   Partly Cloudy
2:54 PM 53.1 °F - 25.0 °F 34% 30.19 in 10.0 mi West 8.1 mph - N/A   Partly Cloudy
3:54 PM 54.0 °F - 23.0 °F 30% 30.18 in 10.0 mi West 5.8 mph - N/A   Partly Cloudy
4:54 PM 55.0 °F - 23.0 °F 29% 30.18 in 10.0 mi Variable 3.5 mph - N/A   Partly Cloudy
5:54 PM 55.0 °F - 21.9 °F 28% 30.19 in 10.0 mi Calm Calm - N/A   Partly Cloudy
6:54 PM 54.0 °F - 23.0 °F 30% 30.20 in 10.0 mi ENE 3.5 mph - N/A   Clear
7:54 PM 51.1 °F - 24.1 °F 35% 30.22 in 10.0 mi NNE 3.5 mph - N/A   Clear
8:54 PM 48.0 °F - 24.1 °F 39% 30.26 in 10.0 mi Calm Calm - N/A   Clear
9:54 PM 46.9 °F - 26.1 °F 44% 30.30 in 10.0 mi East 3.5 mph - N/A   Clear
10:54 PM 42.1 °F - 27.0 °F 55% 30.31 in 10.0 mi Calm Calm - N/A   Clear
11:54 PM 41.0 °F - 28.0 °F 60% 30.31 in 10.0 mi Calm Calm - N/A   Clear